Date String (YYYY-MM-DD hh:mm:ss) UTC,Instrument flags,Ambient pressure (hPa),Sample flow (lpm),Bypass flow (lpm),Sample temperature (°C),Ambient temperature (°C),ASC tube jacket temperature (°C),LED temperature (°C),Box temperature (°C),Sample RH (%),Span deviation,Mass concentration (μg/m³),Mass concentration (μg/m³),Mass concentration (μg/m³)
DateTimeUTC,F1_M11,P_M11,Q1_M11,Q2_M11,T1_M11,T2_M11,T3_M11,T4_M11,T5_M11,U1_M11,ZSPAN_M11,X0_M11,X2_M11,X1_M11
2023-02-01 05:00:00,,0825.4,5.00,0.00,22.4,21.2,00.0,31.2,24.1,06.9,0001.1,0030.85,0018.79,0017.64
2023-02-01 05:01:00,,0825.4,5.01,0.00,22.3,20.8,00.0,31.2,24.0,06.9,0001.1,0030.95,0018.68,0017.57
2023-02-01 05:02:00,,0825.3,4.98,0.00,22.3,20.5,00.0,31.2,23.9,06.9,0001.4,0030.62,0018.57,0017.47
2023-02-01 05:03:00,,0825.3,5.00,0.00,22.2,20.2,00.0,31.2,23.8,06.9,0001.9,0030.79,0018.55,0017.42
2023-02-01 05:04:00,,0825.3,5.02,0.00,22.2,20.1,00.0,31.2,23.7,06.9,0001.6,0031.10,0018.71,0017.48
2023-02-01 05:05:00,,0825.3,4.98,0.00,22.1,19.9,00.0,31.1,23.7,06.9,0001.5,0030.91,0018.84,0017.56
2023-02-01 05:06:00,,0825.3,5.03,0.00,22.1,19.8,00.0,31.1,23.6,06.9,0001.4,0031.07,0018.98,0017.69
2023-02-01 05:07:00,,0825.3,5.00,0.00,22.1,20.7,00.0,31.0,23.8,06.9,0001.7,0030.99,0019.08,0017.82
2023-02-01 05:08:00,,0825.4,5.01,0.00,22.2,21.8,00.0,31.0,24.0,06.9,0001.7,0030.67,0019.22,0017.98
2023-02-01 05:09:00,,0825.4,4.98,0.00,22.3,22.3,00.0,31.0,24.2,06.9,0001.3,0030.33,0019.30,0018.05
2023-02-01 05:10:00,,0825.4,5.03,0.00,22.3,21.8,00.0,31.1,24.1,07.0,0001.6,0029.78,0019.18,0017.93
2023-02-01 05:11:00,,0825.4,4.96,0.00,22.2,21.0,00.0,31.1,23.8,07.0,0001.5,0029.27,0019.07,0017.80
2023-02-01 05:12:00,,0825.4,5.05,0.00,22.1,20.4,00.0,31.1,23.6,07.0,0001.3,0028.97,0019.04,0017.76
2023-02-01 05:13:00,,0825.4,4.97,0.00,22.1,20.1,00.0,31.1,23.6,07.0,0000.7,0028.96,0019.06,0017.76
2023-02-01 05:14:00,,0825.4,5.03,0.00,22.0,19.9,00.0,31.0,23.5,07.0,0000.5,0028.58,0019.02,0017.74
2023-02-01 05:15:00,,0825.4,5.04,0.00,21.9,19.8,00.0,31.0,23.4,07.0,0000.4,0028.24,0018.86,0017.65
2023-02-01 05:16:00,,0825.4,4.96,0.00,21.9,20.2,00.0,31.0,23.5,07.0,0000.2,0028.14,0018.76,0017.56
2023-02-01 05:17:00,,0825.4,5.00,0.00,22.0,21.3,00.0,30.9,23.8,07.0,-000.0,0028.05,0018.63,0017.45
2023-02-01 05:18:00,,0825.4,4.99,0.00,22.1,22.3,00.0,30.9,24.1,07.0,-000.2,0028.60,0018.51,0017.32
2023-02-01 05:19:00,,0825.4,5.00,0.00,22.2,22.1,00.0,31.0,24.1,07.0,-000.2,0028.30,0018.35,0017.15
2023-02-01 05:20:00,,0825.3,5.00,0.00,22.2,21.4,00.0,31.0,23.9,07.0,-000.2,0027.73,0018.25,0017.09
2023-02-01 05:21:00,,0825.4,5.00,0.00,22.1,20.8,00.0,31.0,23.8,07.0,-000.4,0027.50,0018.42,0017.24
2023-02-01 05:22:00,,0825.4,4.99,0.00,22.0,20.3,00.0,31.0,23.6,07.0,-000.5,0027.89,0018.58,0017.40
2023-02-01 05:23:00,,0825.4,5.01,0.00,22.0,19.9,00.0,31.0,23.4,07.0,-000.3,0027.99,0018.64,0017.42
2023-02-01 05:24:00,,0825.4,5.00,0.00,21.9,19.7,00.0,30.9,23.3,07.1,0000.0,0028.25,0018.57,0017.37
2023-02-01 05:25:00,,0825.4,4.99,0.00,21.8,19.9,00.0,30.9,23.3,07.2,0000.1,0028.07,0018.33,0017.17
2023-02-01 05:26:00,,0825.4,5.00,0.00,21.9,21.1,00.0,30.8,23.6,07.2,0000.4,0027.50,0018.11,0017.02
2023-02-01 05:27:00,,0825.4,5.01,0.00,22.0,22.1,00.0,30.8,23.9,07.1,0000.7,0027.24,0018.01,0016.94
2023-02-01 05:28:00,,0825.4,4.98,0.00,22.1,22.8,00.0,30.9,24.1,07.1,0001.3,0027.19,0017.85,0016.76
2023-02-01 05:29:00,,0825.4,5.02,0.00,22.2,22.4,00.0,30.9,24.1,07.1,0001.4,0026.15,0017.64,0016.52
2023-02-01 05:30:00,,0825.4,4.99,0.00,22.2,21.7,00.0,31.0,24.0,07.0,0001.2,0026.18,0017.61,0016.50
2023-02-01 05:31:00,,0825.4,5.00,0.00,22.1,21.1,00.0,31.0,23.8,07.0,0001.3,0026.18,0017.61,0016.49
2023-02-01 05:32:00,,0825.4,5.00,0.00,22.1,20.5,00.0,31.0,23.6,07.0,0000.8,0026.11,0017.54,0016.42
2023-02-01 05:33:00,,0825.4,5.01,0.00,22.0,20.1,00.0,31.0,23.5,07.1,0001.0,0025.82,0017.48,0016.34
2023-02-01 05:34:00,,0825.3,5.01,0.00,21.9,19.9,00.0,30.9,23.5,07.1,0001.3,0025.36,0017.35,0016.23
2023-02-01 05:35:00,,0825.3,4.98,0.00,21.9,19.9,00.0,30.9,23.4,07.2,0001.2,0024.76,0017.20,0016.06
2023-02-01 05:36:00,,0825.3,5.03,0.00,21.9,19.9,00.0,30.9,23.4,07.3,0001.2,0024.98,0017.20,0016.00
2023-02-01 05:37:00,,0825.4,4.98,0.00,21.8,20.0,00.0,30.9,23.4,07.2,0000.8,0025.34,0017.28,0016.04
2023-02-01 05:38:00,,0825.3,5.00,0.00,21.9,21.1,00.0,30.8,23.7,07.2,0000.5,0025.42,0017.26,0016.05
2023-02-01 05:39:00,,0825.3,4.99,0.00,22.0,22.2,00.0,30.8,24.0,07.1,0000.3,0025.81,0017.29,0016.09
2023-02-01 05:40:00,,0825.4,5.02,0.00,22.1,22.6,00.0,30.9,24.1,07.1,0000.3,0026.19,0017.34,0016.17
2023-02-01 05:41:00,,0825.3,4.99,0.00,22.1,21.8,00.0,30.9,23.9,07.1,0000.4,0026.15,0017.27,0016.11
2023-02-01 05:42:00,,0825.4,5.02,0.00,22.1,21.2,00.0,30.9,23.8,07.2,0000.3,0026.12,0017.15,0015.99
2023-02-01 05:43:00,,0825.3,5.02,0.00,22.0,20.6,00.0,30.9,23.6,07.2,0000.5,0026.39,0017.01,0015.87
2023-02-01 05:44:00,,0825.3,5.04,0.00,21.9,20.1,00.0,30.9,23.4,07.2,0000.8,0026.50,0016.94,0015.88
2023-02-01 05:45:00,,0825.3,4.99,0.00,21.8,19.6,00.0,30.9,23.3,07.2,0000.5,0027.44,0016.93,0015.92
2023-02-01 05:46:00,,0825.3,4.98,0.00,21.8,19.5,00.0,30.8,23.2,07.2,0000.7,0028.57,0017.09,0016.07
2023-02-01 05:47:00,,0825.4,5.00,0.00,21.8,20.6,00.0,30.8,23.4,07.2,0000.8,0028.55,0017.22,0016.21
2023-02-01 05:48:00,,0825.4,5.01,0.00,21.9,21.8,00.0,30.8,23.7,07.2,0001.0,0028.30,0017.20,0016.21
2023-02-01 05:49:00,,0825.4,5.02,0.00,22.0,22.2,00.0,30.8,23.9,07.1,0001.3,0028.79,0017.11,0016.10
2023-02-01 05:50:00,,0825.4,5.02,0.00,22.0,21.6,00.0,30.8,23.8,07.2,0001.1,0028.30,0017.02,0016.02
2023-02-01 05:51:00,,0825.4,4.98,0.00,22.0,21.1,00.0,30.8,23.7,07.3,0001.3,0027.81,0016.89,0015.85
2023-02-01 05:52:00,,0825.4,4.99,0.00,21.9,20.8,00.0,30.8,23.5,07.5,0001.6,0027.77,0016.56,0015.55
2023-02-01 05:53:00,,0825.5,5.00,0.00,21.9,20.4,00.0,30.8,23.5,07.6,0001.8,0027.58,0016.21,0015.24
2023-02-01 05:54:00,,0825.4,5.01,0.00,21.8,20.2,00.0,30.8,23.4,07.5,0001.9,0026.76,0015.95,0014.97
2023-02-01 05:55:00,,0825.4,4.98,0.00,21.8,20.1,00.0,30.8,23.4,07.5,0001.8,0026.42,0015.57,0014.60
2023-02-01 05:56:00,,0825.4,5.02,0.00,21.8,19.9,00.0,30.8,23.3,07.6,0001.8,0025.40,0015.23,0014.22
2023-02-01 05:57:00,,0825.4,4.99,0.00,21.8,20.8,00.0,30.7,23.5,07.6,0001.9,0023.98,0014.91,0013.91
2023-02-01 05:58:00,,0825.4,5.03,0.00,21.9,22.0,00.0,30.7,23.8,07.5,0002.1,0023.46,0014.56,0013.60
2023-02-01 05:59:00,,0825.4,4.98,0.00,22.0,22.6,00.0,30.7,24.0,07.4,0002.0,0023.00,0014.22,0013.27
